User: anonymous   Login
Location: The Saddle
(36.8333°N, 80.3417°W)
Time: 23:42:09
(UTC-05:00)
Language:

KKS-1 - Orbit

View from above orbital plane
View from above orbital plane
View from above satellite
View from above satellite

Ground track
Ground track

The orbit data is extracted from the following two-line orbital elements,

1 33499U 09002H   24057.61509827  .00002337  00000-0  32989-3 0  9994
2 33499  98.1501 317.9761 0009703 124.2518 235.9612 14.78159432811631
Epoch (UTC): 26 February 2024 14:45:44
Eccentricity: 0.0009703
inclination: 98.1501°
perigee height: 628 km
apogee height: 642 km
right ascension of ascending node: 317.9761°
argument of perigee: 124.2518°
revolutions per day: 14.78159432
mean anomaly at epoch: 235.9612°
orbit number at epoch: 81163

The dashed part of the orbit path shows where the satellite is in the earth's shadow,  

DLR